Lamezia Terme, Italy

3:17 PM CET on December 17, 2017 (GMT +0100)
Terme

Weather History for LICA - October, 2011

Change the Weather History Date:

Monday, October 10, 2011

  Actual Average Record
Temperature  
Mean Temperature 62 °F -  
Max Temperature 68 °F 68 °F 82 °F (2004)
Min Temperature 53 °F 53 °F 50 °F (2003)
Degree Days  
Heating Degree Days 2    
Growing Degree Days 12 (Base 50)    
Moisture  
Dew Point 40 °F    
Average Humidity 46    
Maximum Humidity 67    
Minimum Humidity 40    
Precipitation  
Precipitation 0.00 in - - ()
Sea Level Pressure  
Sea Level Pressure 29.90 in    
Wind  
Wind Speed 11 mph ()    
Max Wind Speed 25 mph    
Max Gust Speed 30 mph    
Visibility 6.2 miles    
Events      
Averages and records for this station are not official NWS values.
T = Trace of Precipitation, MM = Missing Value Source: Averaged Metar Reports

Daily Weather History Graph

Daily Weather History Graph

Search for Another Location

Airport or City:

Trip Planner

Search our weather history database for the weather conditions in past years. The results will help you decide how hot, cold, wet, or windy it might be!

Date:

Astronomy

Oct. 10, 2011 Rise Set
Actual Time 6:58 AM CEST 6:24 PM CEST
Civil Twilight 6:32 AM CEST 6:51 PM CEST
Nautical Twilight 6:01 AM CEST 7:22 PM CEST
Astronomical Twilight 5:30 AM CEST 7:53 PM CEST
Moon 5:20 PM CEST (10/10) 5:24 AM CEST (10/10)
Length of Visible Light 12h 19m
Length of Day
11h 25m
Waxing Gibbous, 97% of the Moon is Illuminated
Oct 10
Waxing Gibbous
Oct 12
Full
Oct 20
Last Quarter
Oct 26
New
Nov 2
First Quarter

Hourly Weather History & Observations

Time (CEST) Temp. Dew Point Humidity Pressure Visibility Wind Dir Wind Speed Gust Speed Precip Events Conditions
12:50 AM 59.0 °F 37.4 °F 45% 29.80 in 6.2 mi WNW 8.1 mph 24.2 mph N/A   Scattered Clouds
1:50 AM 57.2 °F 35.6 °F 44% 29.80 in 6.2 mi NW 5.8 mph 29.9 mph N/A   Partly Cloudy
2:50 AM 59.0 °F 37.4 °F 45% 29.80 in 6.2 mi North 9.2 mph - N/A   Partly Cloudy
3:50 AM 59.0 °F 35.6 °F 42% 29.80 in 6.2 mi NNE 9.2 mph 20.7 mph N/A   Partly Cloudy
4:50 AM 57.2 °F 35.6 °F 44% 29.83 in 6.2 mi NNW 9.2 mph 23.0 mph N/A   Partly Cloudy
5:50 AM 57.2 °F 33.8 °F 41% 29.83 in 6.2 mi NW 10.4 mph 28.8 mph N/A   Partly Cloudy
6:50 AM 57.2 °F 37.4 °F 48% 29.83 in 6.2 mi West 16.1 mph - N/A   Partly Cloudy
7:50 AM 57.2 °F 37.4 °F 48% 29.86 in 6.2 mi WNW 12.7 mph - N/A   Partly Cloudy
8:50 AM 59.0 °F 37.4 °F 45% 29.86 in 6.2 mi NNW 9.2 mph 29.9 mph N/A   Scattered Clouds
9:50 AM 60.8 °F 41.0 °F 48% 29.89 in 6.2 mi WNW 16.1 mph - N/A   Partly Cloudy
10:50 AM 64.4 °F 39.2 °F 40% 29.92 in 6.2 mi WNW 16.1 mph 27.6 mph N/A   Partly Cloudy
11:50 AM 64.4 °F 41.0 °F 42% 29.92 in 6.2 mi WNW 19.6 mph - N/A   Scattered Clouds
12:50 PM 64.4 °F 42.8 °F 45% 29.92 in 6.2 mi West 17.3 mph - N/A   Partly Cloudy
1:50 PM 66.2 °F 42.8 °F 43% 29.92 in 6.2 mi WNW 19.6 mph - N/A   Partly Cloudy
2:50 PM 68.0 °F 44.6 °F 43% 29.92 in 6.2 mi WNW 20.7 mph - N/A   Partly Cloudy
3:50 PM 68.0 °F 44.6 °F 43% 29.92 in 6.2 mi WNW 21.9 mph - N/A   Scattered Clouds
4:50 PM 66.2 °F 42.8 °F 43% 29.92 in 6.2 mi WNW 25.3 mph - N/A   Scattered Clouds
5:50 PM 66.2 °F 44.6 °F 46% 29.92 in 6.2 mi WNW 23.0 mph - N/A   Scattered Clouds
6:50 PM 62.6 °F 41.0 °F 45% 29.95 in 6.2 mi WNW 13.8 mph - N/A   Partly Cloudy
7:50 PM 60.8 °F 39.2 °F 45% 29.98 in 6.2 mi WNW 9.2 mph - N/A   Partly Cloudy
8:50 PM 59.0 °F 41.0 °F 51% 30.01 in 6.2 mi Variable 3.5 mph - N/A   Partly Cloudy
9:50 PM 60.8 °F 42.8 °F 52% 30.01 in 6.2 mi Variable 2.3 mph - N/A   Partly Cloudy
10:50 PM 53.6 °F 42.8 °F 67% 30.01 in 6.2 mi Variable 1.2 mph - N/A   Partly Cloudy